Location: Caltech
(34.1382°N, 118.1253°W)
Time: 22:31:47
(UTC-07:00)

Cosmos 1626 - Visible Passes

Search period start: 17 April 2014 00:00
Search period end: 27 April 2014 00:00
Orbit: 519 x 525 km, 82.5° (Epoch: 17 April)

Date Brightness Start Highest point End Pass type
(mag) Time Alt. Az. Time Alt. Az. Time Alt. Az.
18 Apr 5.5 21:09:05 10° WNW 21:10:10 11° W 21:11:15 10° WSW visible
19 Apr 5.4 20:55:22 10° WNW 20:57:09 13° W 20:58:57 10° WSW visible
20 Apr 5.3 20:41:53 10° NW 20:44:08 15° W 20:46:23 10° SW visible
21 Apr 5.2 20:28:29 10° NW 20:31:05 18° W 20:33:41 10° SW visible
22 Apr 5.1 20:15:09 10° NW 20:18:02 20° W 20:20:54 10° SW visible
23 Apr 4.9 20:01:50 10° NW 20:04:57 24° W 20:08:04 10° SW visible
